period_start,C,m1,H,J0,J1,J2,J3,J4,J5,JA,JB,JC,JD,JJ,JK,JN,#
2014-11-23 00:04:02,0.17,1.18,0.00,24.30,27.99,30.62,4.77,26.43,1020.55,2028.95,2969.28,2976.12,3228.09,349.92,347.42,8.06,0000 0000 0000 0000 000000
2014-11-23 00:09:03,0.15,1.18,0.00,24.30,28.01,30.65,4.74,26.43,1020.54,2028.79,2967.38,2974.57,3226.26,350.00,347.32,8.09,0000 0000 0000 0000 000000
2014-11-23 00:14:04,0.10,1.19,0.00,24.32,28.03,30.68,4.83,26.48,1020.54,2028.24,2965.23,2972.91,3224.45,350.09,347.39,8.12,0000 0000 0000 0000 000000
2014-11-23 00:19:06,0.17,1.19,0.00,24.31,28.05,30.70,4.72,26.57,1020.53,2028.02,2963.03,2971.33,3222.67,350.07,347.40,8.15,0000 0000 0000 0000 000000
2014-11-23 00:24:06,0.18,1.20,0.00,24.34,28.07,30.70,4.85,26.48,1020.52,2028.02,2961.02,2969.83,3221.08,350.59,348.04,8.18,0000 0000 0000 0000 000000
2014-11-23 00:29:08,0.18,1.20,0.00,24.28,28.10,30.73,4.77,26.57,1020.52,2028.00,2959.03,2968.35,3219.38,350.23,347.75,8.21,0000 0000 0000 0000 000000
2014-11-23 00:34:09,0.19,1.21,0.00,24.31,28.11,30.78,4.71,26.52,1020.52,2028.00,2956.99,2966.78,3217.63,349.65,347.17,8.24,0000 0000 0000 0000 000000
2014-11-23 00:39:10,0.20,1.21,0.00,24.30,28.12,30.79,4.74,26.52,1020.52,2028.00,2954.62,2965.18,3216.04,350.60,348.04,8.27,0000 0000 0000 0000 000000
2014-11-23 00:44:11,0.17,1.22,0.00,24.32,28.15,30.81,4.73,26.48,1020.51,2027.98,2952.65,2963.68,3214.41,350.08,347.55,8.30,0000 0000 0000 0000 000000
2014-11-23 00:49:13,0.18,1.22,0.00,24.32,28.16,30.83,4.77,26.54,1020.48,2027.95,2950.51,2962.25,3212.80,350.18,347.64,8.32,0000 0000 0000 0000 000000
2014-11-23 00:54:14,0.17,1.23,0.00,24.30,28.17,30.82,4.76,26.50,1020.38,2027.94,2948.43,2960.72,3211.28,350.29,347.82,8.35,0000 0000 0000 0000 000000
2014-11-23 00:59:15,0.15,1.23,0.00,24.33,28.18,30.87,4.79,26.57,1020.27,2027.82,2946.48,2959.33,3209.55,350.21,347.57,8.38,0000 0000 0000 0000 000000
2014-11-23 01:04:16,0.17,1.24,0.00,24.32,28.20,30.91,4.82,26.49,1020.10,2027.78,2944.41,2957.80,3208.12,350.20,347.67,8.41,0000 0000 0000 0000 000000
2014-11-23 01:09:18,0.12,1.24,0.00,24.32,28.21,30.92,4.78,26.53,1020.06,2027.53,2942.51,2956.46,3206.53,350.17,347.49,8.44,0000 0000 0000 0000 000000
2014-11-23 01:14:19,0.14,1.25,0.00,24.35,28.22,30.93,4.78,26.68,1020.05,2027.22,2940.48,2954.90,3204.86,349.55,346.84,8.47,0000 0000 0000 0000 000000
2014-11-23 01:19:20,0.18,1.25,0.00,24.33,28.23,30.94,4.79,26.63,1020.06,2027.11,2938.27,2953.46,3203.44,350.39,347.61,8.50,0000 0000 0000 0000 000000
2014-11-23 01:24:22,0.21,1.26,0.00,24.34,28.25,30.97,4.77,26.64,1020.05,2027.05,2935.86,2951.78,3201.66,350.30,347.59,8.53,0000 0000 0000 0000 000000
2014-11-23 01:29:23,0.22,1.26,0.00,24.32,28.25,30.94,4.83,26.61,1020.05,2027.02,2933.47,2949.94,3199.67,350.32,347.57,8.56,0000 0000 0000 0000 000000
2014-11-23 01:34:24,0.19,1.27,0.00,24.34,28.27,30.99,4.75,26.58,1020.05,2027.01,2931.11,2948.28,3197.92,349.73,347.10,8.59,0000 0000 0000 0000 000000
2014-11-23 01:39:25,0.21,1.28,0.00,24.35,28.27,30.99,4.80,26.73,1020.04,2027.00,2928.94,2946.59,3196.04,349.95,347.39,8.62,0000 0000 0000 0000 000000
2014-11-23 01:44:26,0.18,1.28,0.00,24.37,28.28,31.01,4.75,26.64,1020.04,2027.00,2926.95,2945.03,3194.19,349.97,347.19,8.65,0000 0000 0000 0000 000000
2014-11-23 01:49:27,0.20,1.29,0.00,24.35,28.30,31.05,4.70,26.64,1020.04,2027.00,2924.69,2943.57,3192.54,349.75,347.02,8.68,0000 0000 0000 0000 000000
2014-11-23 01:54:28,0.19,1.29,0.00,24.34,28.30,31.01,4.81,26.63,1020.04,2027.00,2922.42,2942.01,3190.93,350.22,347.50,8.71,0000 0000 0000 0000 000000
2014-11-23 01:59:29,0.20,1.30,0.00,24.34,28.32,31.06,4.72,26.62,1020.04,2027.00,2920.18,2940.41,3189.27,349.98,347.27,8.73,0000 0000 0000 0000 000000
2014-11-23 02:04:30,0.22,1.30,0.00,24.32,28.32,31.08,4.77,26.69,1020.04,2027.00,2917.88,2938.70,3187.41,350.45,347.69,8.76,0000 0000 0000 0000 000000
2014-11-23 02:09:32,0.20,1.31,0.00,24.32,28.34,31.06,4.72,26.62,1020.04,2026.98,2915.58,2936.95,3185.51,349.81,347.13,8.79,0000 0000 0000 0000 000000
2014-11-23 02:14:33,0.20,1.32,0.00,24.31,28.35,31.08,4.82,26.71,1020.04,2026.94,2913.26,2935.32,3183.64,350.63,347.91,8.82,0000 0000 0000 0000 000000
2014-11-23 02:19:34,0.21,1.32,0.00,24.31,28.37,31.13,4.86,26.59,1020.04,2026.93,2911.07,2933.69,3181.84,350.69,348.13,8.85,0000 0000 0000 0000 000000
2014-11-23 02:24:35,0.21,1.33,0.00,24.31,28.37,31.16,4.77,26.55,1020.04,2026.88,2908.69,2931.97,3179.97,349.93,347.24,8.88,0000 0000 0000 0000 000000
2014-11-23 02:29:36,0.17,1.34,0.00,24.32,28.38,31.13,4.81,26.61,1020.02,2026.69,2906.19,2930.23,3178.01,349.91,347.18,8.91,0000 0000 0000 0000 000000
2014-11-23 02:34:37,0.21,1.34,0.00,24.31,28.40,31.17,4.87,26.75,1020.01,2026.43,2903.54,2928.38,3176.01,350.26,347.57,8.94,0000 0000 0000 0000 000000
2014-11-23 02:39:38,0.20,1.35,0.00,24.30,28.40,31.17,4.79,26.65,1019.97,2026.18,2900.54,2926.43,3174.04,349.84,347.15,8.97,0000 0000 0000 0000 000000
2014-11-23 02:44:39,0.26,1.35,0.00,24.31,28.41,31.20,4.84,26.72,1019.77,2026.24,2897.91,2924.66,3172.18,350.24,347.49,9.00,0000 0000 0000 0000 000000
2014-11-23 02:49:40,0.18,1.36,0.00,24.31,28.42,31.21,4.80,26.71,1019.66,2026.14,2895.56,2922.97,3170.31,350.28,347.34,9.03,0000 0000 0000 0000 000000
2014-11-23 02:54:41,0.22,1.37,0.00,24.30,28.42,31.25,4.80,26.57,1019.64,2026.07,2892.95,2921.26,3168.54,349.88,347.02,9.06,0000 0000 0000 0000 000000
2014-11-23 02:59:43,0.25,1.37,0.00,24.31,28.43,31.27,4.74,26.59,1019.60,2026.06,2890.10,2919.38,3166.45,350.18,347.36,9.09,0000 0000 0000 0000 000000
2014-11-23 03:04:44,0.25,1.38,0.00,24.31,28.45,31.28,4.75,26.64,1019.71,2026.04,2887.09,2917.41,3164.40,349.93,347.14,9.11,0000 0000 0000 0000 000000
2014-11-23 03:09:45,0.25,1.39,0.00,24.31,28.45,31.29,4.76,26.56,1019.89,2026.02,2884.11,2915.47,3162.37,349.95,347.16,9.14,0000 0000 0000 0000 000000
2014-11-23 03:14:46,0.27,1.40,0.00,24.29,28.45,31.32,4.70,26.57,1019.79,2026.01,2881.00,2913.42,3160.15,349.93,347.17,9.17,0000 0000 0000 0000 000000
2014-11-23 03:19:47,0.30,1.40,0.00,24.29,28.46,31.35,4.85,26.67,1019.66,2026.03,2877.58,2911.21,3157.65,350.26,347.52,9.20,0000 0000 0000 0000 000000
2014-11-23 03:24:48,0.28,1.41,0.00,24.29,28.47,31.38,4.81,26.69,1019.59,2026.01,2874.41,2909.01,3155.33,350.48,347.66,9.23,0000 0000 0000 0000 000000
2014-11-23 03:29:49,0.27,1.42,0.00,24.28,28.47,31.40,4.76,26.65,1019.57,2026.00,2871.27,2906.98,3153.10,349.36,346.67,9.26,0000 0000 0000 0000 000000
2014-11-23 03:34:51,0.21,1.43,0.00,24.25,28.47,31.40,4.83,26.60,1019.57,2026.00,2868.80,2905.09,3150.78,350.45,347.58,9.29,0000 0000 0000 0000 000000
2014-11-23 03:39:52,0.20,1.43,0.00,24.27,28.47,31.41,4.83,26.80,1019.57,2026.00,2866.64,2903.59,3149.06,350.31,347.42,9.32,0000 0000 0000 0000 000000
2014-11-23 03:44:53,0.20,1.44,0.00,24.25,28.49,31.41,4.75,26.67,1019.55,2026.00,2864.30,2902.07,3147.62,349.93,347.17,9.35,0000 0000 0000 0000 000000
2014-11-23 03:49:54,0.19,1.45,0.00,24.25,28.50,31.47,4.78,26.57,1019.56,2026.00,2862.16,2900.54,3145.87,350.20,347.56,9.38,0000 0000 0000 0000 000000
2014-11-23 03:54:55,0.22,1.45,0.00,24.24,28.50,31.47,4.78,26.63,1019.56,2025.99,2859.83,2898.87,3144.15,349.60,346.56,9.41,0000 0000 0000 0000 000000
2014-11-23 03:59:56,0.20,1.46,0.00,24.25,28.50,31.46,4.72,26.63,1019.56,2025.99,2857.47,2897.26,3142.40,349.87,347.02,9.44,0000 0000 0000 0000 000000
2014-11-23 04:04:58,0.23,1.47,0.00,24.24,28.50,31.45,4.75,26.67,1019.55,2025.99,2854.97,2895.60,3140.69,350.21,347.46,9.47,0000 0000 0000 0000 000000
2014-11-23 04:09:59,0.20,1.47,0.00,24.23,28.50,31.44,4.81,26.73,1019.55,2025.99,2852.49,2893.96,3139.05,350.05,347.35,9.50,0000 0000 0000 0000 000000
2014-11-23 04:15:00,0.23,1.48,0.00,24.24,28.50,31.50,4.84,26.74,1019.56,2025.99,2849.99,2892.32,3137.31,350.47,347.72,9.52,0000 0000 0000 0000 000000
2014-11-23 04:20:01,0.27,1.49,0.00,24.22,28.50,31.49,4.67,26.60,1019.56,2025.98,2847.28,2890.26,3135.01,350.33,347.63,9.55,0000 0000 0000 0000 000000
2014-11-23 04:25:03,0.31,1.49,0.00,24.21,28.50,31.46,4.80,26.57,1019.55,2025.98,2843.92,2888.00,3132.57,350.27,347.54,9.58,0000 0000 0000 0000 000000
2014-11-23 04:30:04,0.32,1.50,0.00,24.20,28.50,31.47,4.79,26.71,1019.55,2025.98,2840.30,2885.57,3130.03,349.98,347.22,9.61,0000 0000 0000 0000 000000
2014-11-23 04:35:05,0.30,1.51,0.00,24.19,28.50,31.48,4.75,26.74,1019.48,2025.99,2836.90,2883.29,3127.60,349.96,347.39,9.64,0000 0000 0000 0000 000000
2014-11-23 04:40:06,0.30,1.52,0.00,24.21,28.50,31.47,4.75,26.75,1019.50,2025.97,2833.69,2881.06,3125.03,349.79,347.08,9.67,0000 0000 0000 0000 000000
2014-11-23 04:45:07,0.29,1.53,0.00,24.20,28.50,31.49,4.78,26.57,1019.50,2025.96,2830.25,2878.92,3122.71,350.54,347.81,9.70,0000 0000 0000 0000 000000
2014-11-23 04:50:09,0.32,1.54,0.00,24.18,28.50,31.50,4.83,26.63,1019.51,2025.98,2826.56,2876.68,3120.41,350.55,347.84,9.73,0000 0000 0000 0000 000000
2014-11-23 04:55:10,0.33,1.55,0.00,24.19,28.49,31.50,4.82,26.67,1019.25,2025.97,2822.86,2874.17,3117.70,350.37,347.63,9.76,0000 0000 0000 0000 000000
2014-11-23 05:00:11,0.30,1.56,0.00,24.18,28.49,31.50,4.82,26.67,1019.24,2025.97,2819.55,2871.92,3115.16,349.97,347.05,9.79,0000 0000 0000 0000 000000
2014-11-23 05:05:12,0.25,1.57,0.00,24.19,28.48,31.47,4.80,26.66,1019.28,2025.97,2816.88,2869.95,3112.98,350.28,347.47,9.82,0000 0000 0000 0000 000000
2014-11-23 05:10:14,0.26,1.58,0.00,24.17,28.47,31.46,4.82,26.74,1019.14,2025.97,2813.88,2868.01,3110.99,349.97,347.15,9.85,0000 0000 0000 0000 000000
2014-11-23 05:15:14,0.32,1.58,0.00,24.17,28.47,31.47,4.84,26.73,1019.12,2025.95,2810.44,2865.64,3108.46,350.05,347.10,9.88,0000 0000 0000 0000 000000
2014-11-23 05:20:16,0.30,1.59,0.00,24.16,28.47,31.46,4.78,26.61,1019.07,2025.93,2807.15,2863.41,3105.94,350.20,347.41,9.91,0000 0000 0000 0000 000000
2014-11-23 05:25:17,0.32,1.60,0.00,24.15,28.47,31.46,4.80,26.62,1019.08,2025.94,2803.43,2861.06,3103.67,350.51,347.68,9.93,0000 0000 0000 0000 000000
2014-11-23 05:30:18,0.31,1.61,0.00,24.15,28.47,31.50,4.82,26.63,1019.07,2025.97,2800.17,2858.75,3101.04,350.14,347.43,9.96,0000 0000 0000 0000 000000
2014-11-23 05:35:19,0.29,1.62,0.00,24.13,28.47,31.49,4.81,26.71,1019.07,2025.97,2796.97,2856.58,3098.66,350.22,347.46,9.99,0000 0000 0000 0000 000000
2014-11-23 05:40:21,0.31,1.63,0.00,24.13,28.46,31.46,4.82,26.82,1019.06,2025.94,2793.54,2854.30,3096.24,349.89,347.06,10.02,0000 0000 0000 0000 000000
2014-11-23 05:45:22,0.27,1.64,0.00,24.13,28.45,31.43,4.81,26.70,1019.07,2025.95,2790.55,2852.28,3094.13,350.17,347.37,10.05,0000 0000 0000 0000 000000
2014-11-23 05:50:23,0.29,1.65,0.00,24.12,28.45,31.47,4.86,26.60,1019.07,2025.99,2787.50,2850.21,3091.83,350.47,347.66,10.08,0000 0000 0000 0000 000000
2014-11-23 05:55:24,0.28,1.66,0.00,24.13,28.45,31.47,4.78,26.64,1019.08,2025.99,2784.28,2848.13,3089.59,350.11,347.39,10.11,0000 0000 0000 0000 000000
2014-11-23 06:00:25,0.29,1.66,0.00,24.12,28.45,31.46,4.75,26.52,1019.11,2025.99,2781.01,2845.96,3087.40,349.73,346.94,10.14,0000 0000 0000 0000 000000
2014-11-23 06:05:26,0.27,1.67,0.00,24.13,28.45,31.45,4.80,26.67,1019.08,2025.99,2778.11,2843.97,3085.29,350.16,347.29,10.17,0000 0000 0000 0000 000000
2014-11-23 06:10:27,0.26,1.68,0.00,24.13,28.45,31.45,4.68,26.68,1019.07,2025.98,2775.12,2842.01,3083.16,349.97,347.17,10.20,0000 0000 0000 0000 000000
2014-11-23 06:15:28,0.32,1.69,0.00,24.12,28.44,31.42,4.79,26.65,1019.06,2025.99,2771.88,2839.66,3080.58,349.84,347.05,10.23,0000 0000 0000 0000 000000
2014-11-23 06:20:30,0.35,1.70,0.00,24.13,28.43,31.45,4.73,26.57,1019.07,2025.98,2768.19,2837.10,3077.77,349.79,347.00,10.26,0000 0000 0000 0000 000000
2014-11-23 06:25:31,0.33,1.71,0.00,24.10,28.42,31.44,4.79,26.68,1019.06,2025.97,2764.53,2834.68,3075.30,350.23,347.47,10.29,0000 0000 0000 0000 000000
2014-11-23 06:30:32,0.32,1.72,0.00,24.10,28.42,31.43,4.69,26.63,1019.06,2025.98,2760.97,2832.35,3072.91,349.80,347.04,10.32,0000 0000 0000 0000 000000
2014-11-23 06:35:33,0.31,1.73,0.00,24.10,28.42,31.44,4.78,26.79,1019.04,2025.99,2757.52,2830.12,3070.67,349.45,346.67,10.34,0000 0000 0000 0000 000000
2014-11-23 06:40:34,0.30,1.74,0.00,24.08,28.42,31.43,4.83,26.92,1018.79,2025.99,2754.21,2827.90,3068.34,350.71,347.82,10.37,0000 0000 0000 0000 000000
2014-11-23 06:45:35,0.23,1.74,0.00,24.07,28.42,31.42,4.82,26.68,1018.65,2025.99,2751.55,2825.98,3066.28,350.05,347.26,10.40,0000 0000 0000 0000 000000
2014-11-23 06:50:36,0.25,1.75,0.00,24.04,28.41,31.42,4.82,26.63,1018.58,2025.99,2749.08,2824.19,3064.31,350.57,347.24,10.43,0000 0000 0000 0000 000000
2014-11-23 06:55:37,0.27,1.76,0.00,24.04,28.40,31.41,4.74,26.60,1018.58,2025.99,2746.18,2822.25,3062.16,349.68,346.83,10.46,0000 0000 0000 0000 000000
2014-11-23 07:00:38,0.27,1.77,0.00,24.02,28.40,31.45,4.75,26.77,1018.57,2025.99,2743.30,2820.25,3060.06,349.50,346.67,10.49,0000 0000 0000 0000 000000
2014-11-23 07:05:39,0.27,1.78,0.00,24.03,28.40,31.43,4.79,26.66,1018.57,2025.99,2740.39,2818.30,3058.01,350.31,347.54,10.52,0000 0000 0000 0000 000000
2014-11-23 07:10:40,0.25,1.78,0.00,24.02,28.40,31.42,4.79,26.73,1018.57,2025.99,2737.64,2816.48,3055.98,349.90,347.09,10.55,0000 0000 0000 0000 000000
2014-11-23 07:15:42,0.27,1.79,0.00,24.02,28.39,31.45,4.79,26.78,1018.57,2025.99,2735.02,2814.64,3053.86,349.62,346.78,10.58,0000 0000 0000 0000 000000
2014-11-23 07:20:43,0.24,1.80,0.00,24.01,28.38,31.42,4.83,26.60,1018.57,2025.99,2732.43,2812.79,3051.83,350.37,347.56,10.61,0000 0000 0000 0000 000000
2014-11-23 07:25:44,0.23,1.81,0.00,23.99,28.37,31.44,4.79,26.77,1018.55,2025.99,2730.05,2811.06,3049.91,350.12,347.30,10.64,0000 0000 0000 0000 000000
2014-11-23 07:30:45,0.22,1.81,0.00,23.98,28.37,31.40,4.71,26.68,1018.47,2025.99,2727.80,2809.49,3048.10,349.68,346.95,10.67,0000 0000 0000 0000 000000
2014-11-23 07:35:46,0.21,1.82,0.00,23.99,28.37,31.39,4.77,26.58,1018.53,2025.99,2725.63,2807.91,3046.39,350.16,347.43,10.70,0000 0000 0000 0000 000000
2014-11-23 07:40:47,0.22,1.83,0.00,23.98,28.37,31.41,4.82,26.81,1018.35,2025.98,2723.05,2806.36,3044.74,350.04,347.18,10.73,0000 0000 0000 0000 000000
2014-11-23 07:45:48,0.20,1.83,0.00,23.97,28.35,31.37,4.81,26.69,1018.39,2025.99,2720.96,2804.86,3043.34,349.95,347.21,10.75,0000 0000 0000 0000 000000
2014-11-23 07:50:49,0.20,1.84,0.00,23.96,28.35,31.38,4.80,26.77,1018.44,2025.99,2718.76,2803.46,3041.73,350.11,347.33,10.78,0000 0000 0000 0000 000000
2014-11-23 07:55:51,0.20,1.84,0.00,23.95,28.35,31.38,4.77,26.73,1018.22,2025.99,2716.52,2801.90,3040.29,349.51,346.58,10.81,0000 0000 0000 0000 000000
2014-11-23 08:00:52,0.20,1.85,0.00,23.95,28.35,31.36,4.72,26.77,1018.19,2025.99,2714.35,2800.47,3038.61,350.07,347.18,10.84,0000 0000 0000 0000 000000
2014-11-23 08:05:53,0.24,1.86,0.00,23.93,28.33,31.37,4.79,26.74,1018.40,2025.99,2712.09,2798.81,3036.74,350.14,347.31,10.87,0000 0000 0000 0000 000000
2014-11-23 08:10:54,0.21,1.86,0.00,23.93,28.32,31.38,4.79,26.77,1018.50,2025.99,2709.78,2797.24,3035.09,349.96,347.02,10.90,0000 0000 0000 0000 000000
2014-11-23 08:15:55,0.23,1.87,0.00,23.92,28.32,31.38,4.77,26.68,1018.48,2025.99,2707.42,2795.65,3033.46,349.73,347.12,10.93,0000 0000 0000 0000 000000
2014-11-23 08:20:56,0.19,1.88,0.00,23.91,28.32,31.35,4.77,26.72,1018.17,2026.00,2705.14,2794.20,3031.95,349.82,346.94,10.96,0000 0000 0000 0000 000000
2014-11-23 08:25:58,0.17,1.88,0.00,23.89,28.31,31.37,4.80,26.74,1018.11,2026.00,2703.34,2792.97,3030.70,349.93,347.09,10.99,0000 0000 0000 0000 000000
2014-11-23 08:30:59,0.19,1.89,0.00,23.89,28.30,31.37,4.74,26.82,1018.14,2026.00,2701.43,2791.71,3029.28,349.67,346.90,11.02,0000 0000 0000 0000 000000
2014-11-23 08:36:00,0.17,1.89,0.00,23.86,28.30,31.34,4.73,26.84,1018.09,2026.02,2699.69,2790.50,3028.05,349.61,346.80,11.05,0000 0000 0000 0000 000000
2014-11-23 08:41:01,0.18,1.90,0.00,23.83,28.29,31.32,4.85,26.90,1018.10,2026.02,2697.85,2789.23,3026.57,350.30,347.52,11.08,0000 0000 0000 0000 000000
2014-11-23 08:46:03,0.18,1.90,0.00,23.84,28.27,31.32,4.78,26.77,1018.08,2026.01,2696.04,2787.88,3025.06,350.14,347.29,11.11,0000 0000 0000 0000 000000
2014-11-23 08:51:04,0.20,1.91,0.00,23.83,28.27,31.33,4.79,26.76,1018.09,2026.03,2693.99,2786.50,3023.55,350.67,347.79,11.14,0000 0000 0000 0000 000000
2014-11-23 08:56:05,0.22,1.91,0.00,23.82,28.27,31.32,4.83,26.84,1018.09,2026.02,2691.91,2784.97,3021.83,349.96,347.23,11.16,0000 0000 0000 0000 000000
2014-11-23 09:01:06,0.22,1.92,0.00,23.82,28.26,31.34,4.75,26.80,1018.08,2026.04,2689.66,2783.41,3020.10,349.91,347.17,11.19,0000 0000 0000 0000 000000
2014-11-23 09:06:07,0.22,1.93,0.00,23.81,28.25,31.29,4.86,26.81,1018.08,2026.03,2687.43,2781.76,3018.44,350.17,347.40,11.22,0000 0000 0000 0000 000000
2014-11-23 09:11:09,0.22,1.93,0.00,23.80,28.25,31.27,4.81,26.77,1018.08,2026.05,2685.25,2780.20,3016.69,349.89,347.20,11.25,0000 0000 0000 0000 000000
2014-11-23 09:16:10,0.22,1.94,0.00,23.79,28.24,31.29,4.80,26.78,1018.08,2026.02,2682.93,2778.62,3015.00,349.52,346.91,11.28,0000 0000 0000 0000 000000
2014-11-23 09:21:11,0.22,1.95,0.00,23.80,28.22,31.24,4.81,26.73,1018.08,2026.06,2680.63,2777.14,3013.44,350.15,347.40,11.31,0000 0000 0000 0000 000000
2014-11-23 09:26:13,0.21,1.95,0.00,23.79,28.22,31.28,4.78,26.77,1018.08,2026.08,2678.49,2775.66,3011.84,349.78,347.04,11.34,0000 0000 0000 0000 000000
2014-11-23 09:31:14,0.18,1.96,0.00,23.78,28.21,31.27,4.75,26.72,1018.02,2026.06,2676.44,2774.28,3010.42,349.67,346.88,11.37,0000 0000 0000 0000 000000
2014-11-23 09:36:15,0.21,1.97,0.00,23.77,28.20,31.26,4.79,26.82,1017.98,2026.17,2674.57,2772.98,3009.04,349.89,347.41,11.40,0000 0000 0000 0000 000000
2014-11-23 09:41:16,0.20,1.97,0.00,23.78,28.20,31.23,4.77,26.77,1017.72,2026.21,2672.62,2771.61,3007.60,349.86,346.93,11.43,0000 0000 0000 0000 000000
2014-11-23 09:46:17,0.18,1.98,0.00,23.77,28.20,31.26,4.78,26.67,1017.65,2026.25,2670.58,2770.36,3006.32,350.71,347.89,11.46,0000 0000 0000 0000 000000
2014-11-23 09:51:19,0.22,1.98,0.00,23.78,28.18,31.23,4.78,26.70,1017.69,2026.53,2668.63,2769.07,3005.05,350.14,347.28,11.49,0000 0000 0000 0000 000000
2014-11-23 09:56:20,0.18,1.99,0.00,23.77,28.17,31.20,4.78,26.80,1017.63,2026.76,2666.92,2767.96,3003.90,349.59,346.77,11.52,0000 0000 0000 0000 000000
2014-11-23 10:01:21,0.17,2.00,0.00,23.76,28.17,31.18,4.76,26.76,1017.61,2026.92,2665.40,2766.97,3002.86,350.10,347.18,11.55,0000 0000 0000 0000 000000
2014-11-23 10:06:23,0.16,2.00,0.00,23.76,28.17,31.19,4.75,26.67,1017.61,2026.91,2663.77,2765.92,3001.68,349.69,346.73,11.57,0000 0000 0000 0000 000000
2014-11-23 10:11:24,0.17,2.00,0.00,23.77,28.16,31.20,4.81,26.77,1017.62,2026.91,2662.26,2764.74,3000.27,349.99,347.07,11.60,0000 0000 0000 0000 000000
2014-11-23 10:16:25,0.22,2.01,0.00,23.76,28.15,31.19,4.81,26.73,1017.60,2026.92,2659.68,2763.19,2998.73,349.91,347.12,11.63,0000 0000 0000 0000 000000
2014-11-23 10:21:26,0.12,2.02,0.00,23.75,28.15,31.19,4.75,26.73,1017.60,2026.95,2658.40,2762.33,2997.91,349.94,347.00,11.66,0000 0000 0000 0000 000000
2014-11-23 10:26:27,0.10,2.02,0.00,23.73,28.15,31.18,4.72,26.71,1017.59,2026.97,2657.20,2761.67,2997.09,349.81,346.98,11.69,0000 0000 0000 0000 000000
2014-11-23 10:31:28,0.08,2.02,0.00,23.72,28.14,31.15,4.80,26.86,1017.59,2026.97,2656.34,2760.98,2996.36,350.22,347.40,11.72,0000 0000 0000 0000 000000
2014-11-23 10:36:29,0.11,2.02,0.00,23.70,28.12,31.18,4.73,26.74,1017.59,2026.99,2655.29,2760.25,2995.66,349.63,346.75,11.75,0000 0000 0000 0000 000000
2014-11-23 10:41:30,0.16,2.03,0.00,23.71,28.12,31.15,4.77,26.82,1017.59,2026.98,2653.72,2759.21,2994.39,349.75,346.86,11.78,0000 0000 0000 0000 000000
2014-11-23 10:46:32,0.17,2.03,0.00,23.72,28.12,31.13,4.83,26.70,1017.59,2026.98,2651.94,2757.98,2993.09,350.00,347.17,11.81,0000 0000 0000 0000 000000
2014-11-23 10:51:33,0.18,2.04,0.00,23.72,28.12,31.13,4.77,26.78,1017.59,2026.99,2650.26,2756.78,2991.76,349.44,346.60,11.84,0000 0000 0000 0000 000000
2014-11-23 10:56:34,0.18,2.04,0.00,23.71,28.10,31.12,4.74,26.80,1017.56,2026.99,2648.41,2755.48,2990.37,349.54,346.65,11.87,0000 0000 0000 0000 000000
2014-11-23 11:01:35,0.19,2.05,0.00,23.71,28.10,31.13,4.82,26.89,1017.58,2026.99,2646.52,2754.17,2988.80,350.33,347.75,11.90,0000 0000 0000 0000 000000
2014-11-23 11:06:36,0.20,2.06,0.00,23.68,28.10,31.16,4.84,26.79,1017.59,2026.98,2644.56,2752.77,2987.31,350.31,347.60,11.93,0000 0000 0000 0000 000000
2014-11-23 11:11:37,0.18,2.06,0.00,23.68,28.10,31.12,4.75,26.73,1017.59,2026.98,2642.55,2751.53,2985.96,349.70,346.86,11.96,0000 0000 0000 0000 000000
2014-11-23 11:16:38,0.18,2.07,0.00,23.67,28.08,31.11,4.73,26.79,1017.57,2026.98,2640.74,2750.38,2984.50,349.51,346.85,11.98,0000 0000 0000 0000 000000
2014-11-23 11:21:39,0.16,2.07,0.00,23.67,28.07,31.11,4.84,26.80,1017.47,2026.99,2638.89,2749.08,2983.17,350.24,347.16,12.01,0000 0000 0000 0000 000000
2014-11-23 11:26:40,0.19,2.08,0.00,23.67,28.07,31.10,4.80,26.86,1017.48,2026.99,2636.90,2747.86,2981.87,349.56,346.72,12.04,0000 0000 0000 0000 000000
2014-11-23 11:31:41,0.17,2.08,0.00,23.67,28.07,31.08,4.83,26.68,1017.47,2026.99,2635.22,2746.66,2980.60,350.18,347.33,12.07,0000 0000 0000 0000 000000
2014-11-23 11:36:42,0.17,2.09,0.00,23.66,28.06,31.09,4.79,26.71,1017.23,2026.99,2633.53,2745.44,2979.20,350.67,347.66,12.10,0000 0000 0000 0000 000000
2014-11-23 11:41:43,0.16,2.09,0.00,23.64,28.05,31.09,4.75,26.76,1017.12,2026.99,2631.81,2744.28,2977.87,349.58,346.70,12.13,0000 0000 0000 0000 000000
2014-11-23 11:46:44,0.17,2.10,0.00,23.66,28.05,31.08,4.77,26.85,1017.14,2026.99,2630.06,2743.10,2976.61,350.07,347.04,12.16,0000 0000 0000 0000 000000
2014-11-23 11:51:46,0.18,2.10,0.00,23.66,28.05,31.06,4.80,26.80,1017.12,2026.99,2628.24,2741.80,2975.42,350.33,347.48,12.19,0000 0000 0000 0000 000000
2014-11-23 11:56:46,0.18,2.11,0.00,23.65,28.04,31.06,4.77,26.75,1017.15,2026.99,2626.47,2740.57,2973.96,349.71,346.82,12.22,0000 0000 0000 0000 000000
2014-11-23 12:01:48,0.18,2.11,0.00,23.63,28.02,31.07,4.76,26.81,1017.12,2026.99,2624.75,2739.38,2972.66,349.63,346.75,12.25,0000 0000 0000 0000 000000
2014-11-23 12:06:49,0.16,2.12,0.00,23.63,28.02,31.05,4.77,26.78,1017.12,2026.99,2623.00,2738.21,2971.46,349.77,346.93,12.28,0000 0000 0000 0000 000000
2014-11-23 12:11:50,0.16,2.12,0.00,23.62,28.02,31.07,4.74,26.91,1017.11,2026.99,2621.41,2737.00,2970.20,349.93,346.90,12.31,0000 0000 0000 0000 000000
2014-11-23 12:16:51,0.19,2.13,0.00,23.60,28.02,31.04,4.80,26.80,1017.11,2027.00,2619.76,2735.83,2968.86,350.20,347.34,12.34,0000 0000 0000 0000 000000
2014-11-23 12:21:53,0.20,2.13,0.00,23.61,28.00,31.05,4.82,26.64,1017.11,2027.00,2617.94,2734.51,2967.53,350.31,347.50,12.36,0000 0000 0000 0000 000000
2014-11-23 12:26:54,0.15,2.14,0.00,23.61,28.00,31.03,4.79,26.83,1017.10,2027.01,2616.33,2733.45,2966.28,349.75,347.01,12.39,0000 0000 0000 0000 000000
2014-11-23 12:31:55,0.17,2.15,0.00,23.59,28.00,31.02,4.73,26.67,1017.09,2027.01,2614.65,2732.23,2964.98,349.74,346.73,12.42,0000 0000 0000 0000 000000
2014-11-23 12:36:56,0.17,2.15,0.00,23.59,28.00,31.04,4.90,26.86,1017.10,2027.02,2612.92,2730.98,2963.70,350.55,347.69,12.45,0000 0000 0000 0000 000000
2014-11-23 12:41:57,0.18,2.16,0.00,23.58,28.00,31.02,4.78,26.84,1017.07,2027.01,2611.17,2729.78,2962.31,350.02,347.19,12.48,0000 0000 0000 0000 000000
2014-11-23 12:46:59,0.17,2.16,0.00,23.58,27.99,30.99,4.83,26.79,1017.04,2027.00,2609.58,2728.56,2961.08,350.21,347.42,12.51,0000 0000 0000 0000 000000
2014-11-23 12:52:00,0.15,2.17,0.00,23.59,27.98,31.00,4.81,26.76,1016.70,2027.02,2607.98,2727.53,2959.86,349.58,346.65,12.54,0000 0000 0000 0000 000000
2014-11-23 12:57:01,0.16,2.17,0.00,23.59,27.97,30.98,4.75,26.71,1016.62,2027.01,2606.44,2726.36,2958.59,350.39,347.39,12.57,0000 0000 0000 0000 000000
2014-11-23 13:02:03,0.15,2.18,0.00,23.59,27.97,31.01,4.77,26.79,1016.62,2027.04,2604.95,2725.33,2957.47,349.92,347.09,12.60,0000 0000 0000 0000 000000